Simultaneous Nadir Overpasses (SNOs) Predictions

Prediction of SNOs near equator between AQUA and NPP Satellite Orbit:

Table of predicted SNOs near equator for the next 14.0 days since TLE Epoch: 5/24/2014
Index Date (AQUA) Time (AQUA) AQUA Lat,Lon Date (NPP) Time (NPP) NPP Lat,Lon Distance(km) Time Diff (sec)
1 05/24/2014 04:42:19 -29.98, -51.34 05/24/2014 04:32:36 -30.10, -50.61 71.03 583
2 05/24/2014 05:31:49 29.94, 116.30 05/24/2014 05:23:24 30.04, 116.70 40.48 505
3 05/24/2014 06:21:12 -29.98, -76.06 05/24/2014 06:14:04 -29.98, -75.95 9.91 428
4 05/24/2014 07:06:23 14.34, 95.29 05/24/2014 07:00:26 14.34, 95.29 0.19 357
5 05/24/2014 07:48:23 12.37, -91.31 05/24/2014 07:43:32 12.37, -91.30 1.33 291
6 05/24/2014 08:36:36 -17.07, 77.36 05/24/2014 08:33:01 -17.09, 77.11 26.56 215
7 05/24/2014 09:24:44 21.54,-113.95 05/24/2014 09:22:24 21.64,-114.45 52.32 140
8 05/24/2014 10:12:58 -26.15, 54.78 05/24/2014 10:11:54 -26.27, 54.03 75.76 64
9 05/24/2014 11:01:18 29.91,-136.61 05/24/2014 11:01:29 30.13,-137.60 98.12 11
10 05/26/2014 20:58:44 -29.98, 64.56 05/26/2014 20:49:35 -30.11, 65.16 59.74 549
11 05/26/2014 21:48:14 29.94,-127.81 05/26/2014 21:40:22 30.00,-127.51 29.23 472
12 05/26/2014 22:37:14 -28.60, 40.19 05/26/2014 22:30:39 -28.60, 40.20 0.62 395
13 05/26/2014 23:20:00 4.19,-146.62 05/26/2014 23:14:32 4.18,-146.61 1.25 328
14 05/27/2014 00:04:14 14.42, 25.04 05/26/2014 23:59:56 14.41, 24.95 9.09 258
15 05/27/2014 00:52:29 -18.99,-166.31 05/27/2014 00:49:26 -19.07,-166.64 35.66 183
16 05/27/2014 01:40:36 23.53, 2.41 05/27/2014 01:38:49 23.62, 1.82 60.76 107
17 05/27/2014 02:28:51 -28.07, 171.16 05/27/2014 02:28:19 -28.25, 170.33 82.99 32
18 05/29/2014 12:25:46 29.97, 12.80 05/29/2014 12:15:53 30.13, 13.60 78.98 593
19 05/29/2014 13:15:09 -30.00,-179.55 05/29/2014 13:06:34 -30.13,-179.07 48.42 515
20 05/29/2014 14:04:39 29.97, -11.92 05/29/2014 13:57:21 30.01, -11.74 17.80 438
21 05/29/2014 14:51:15 -19.97, 158.18 05/29/2014 14:45:10 -19.96, 158.20 1.26 365
22 05/29/2014 15:33:57 -4.73, -28.83 05/29/2014 15:28:59 -4.73, -28.83 0.03 298
23 05/29/2014 16:20:06 16.38, 141.37 05/29/2014 16:16:21 16.39, 141.19 18.87 225
24 05/29/2014 17:08:21 -20.96, -49.96 05/29/2014 17:05:51 -21.04, -50.38 44.77 150
25 05/29/2014 17:56:27 25.55, 118.80 05/29/2014 17:55:13 25.65, 118.12 68.78 74
26 05/29/2014 18:44:45 -29.91, -72.48 05/29/2014 18:44:46 -30.09, -73.39 90.16 1
27 06/01/2014 04:42:10 29.96, 128.70 06/01/2014 04:32:51 30.10, 129.38 67.49 559
28 06/01/2014 05:31:33 -29.99, -63.65 06/01/2014 05:23:32 -30.09, -63.29 36.95 481
29 06/01/2014 06:21:03 29.96, 103.98 06/01/2014 06:14:19 29.98, 104.04 6.30 404
30 06/01/2014 07:05:34 -12.42, -84.22 06/01/2014 07:00:00 -12.42, -84.23 1.30 334
31 06/01/2014 07:47:50 -13.86, 89.05 06/01/2014 07:43:22 -13.87, 89.04 1.40 268
32 06/01/2014 08:35:57 18.38,-102.28 06/01/2014 08:32:45 18.42,-102.54 28.30 192
33 06/01/2014 09:24:12 -22.95, 66.41 06/01/2014 09:22:15 -23.07, 65.90 53.57 117
34 06/01/2014 10:12:19 27.48,-124.82 06/01/2014 10:11:38 27.62,-125.58 76.51 41
35 06/03/2014 20:09:03 -30.00, 76.96 06/03/2014 19:59:03 -30.29, 77.80 87.25 600
36 06/03/2014 20:58:33 29.98,-115.41 06/03/2014 20:49:48 30.07,-114.84 55.90 525
37 06/03/2014 21:47:55 -29.94, 52.26 06/03/2014 21:40:28 -30.00, 52.51 25.28 447
38 06/03/2014 22:36:33 26.79,-139.32 06/03/2014 22:30:22 26.79,-139.32 0.86 371
39 06/03/2014 23:19:07 -2.17, 33.88 06/03/2014 23:14:03 -2.17, 33.88 0.78 304
40 06/04/2014 00:03:39 -15.89,-154.60 06/03/2014 23:59:45 -15.89,-154.71 11.17 234
41 06/04/2014 00:51:46 20.41, 14.09 06/04/2014 00:49:07 20.50, 13.74 37.65 159
42 06/04/2014 01:40:01 -24.98,-177.20 06/04/2014 01:38:38 -25.08,-177.81 62.07 83
43 06/04/2014 02:28:08 29.50, -8.41 06/04/2014 02:28:00 29.69, -9.25 83.70 8
44 06/06/2014 12:25:26 -29.98,-167.13 06/06/2014 12:15:59 -30.15,-166.38 74.63 567
45 06/06/2014 13:14:56 29.96, 0.50 06/06/2014 13:06:46 30.04, 0.95 44.08 490
46 06/06/2014 14:04:19 -29.98, 168.15 06/06/2014 13:57:27 -30.03, 168.28 13.68 412
47 06/06/2014 14:50:31 18.04, -21.33 06/06/2014 14:44:51 18.04, -21.34 0.96 340
48 06/06/2014 15:32:29 8.78, 152.12 06/06/2014 15:27:55 8.79, 152.12 0.45 274
49 06/06/2014 16:19:28 -17.96, -38.23 06/06/2014 16:16:08 -17.97, -38.43 21.22 200
50 06/06/2014 17:07:36 22.42, 130.46 06/06/2014 17:05:31 22.52, 130.02 46.88 125
51 06/06/2014 17:55:50 -27.04, -60.79 06/06/2014 17:55:01 -27.15, -61.49 70.14 49
52 06/06/2014 18:44:25 29.88, 107.59 06/06/2014 18:44:52 30.07, 106.63 94.61 27




NCC Satellite Simultaneous Nadir Overpasses (SNOs) Prediction Service
